Location: Lango�lan
(48.1202°N, 3.2340°W)
Time: 08:07:11
(UTC+00:00)

Cosmos 1900 - Pass Details

Date: 23 October 2019
Orbit: 689 x 733 km, 66.1° (Epoch: 18 November)

Event Time Altitude Azimuth Distance (km) Brightness Sun altitude
Exits shadow 05:55:37 - 322° (NW) 2,989 7.1 -8.7°
Reaches altitude 10° 05:57:42 10° 321° (NW) 2,174 6.4 -8.3°
Maximum altitude 06:02:37 73° 238° (WSW) 731 4.3 -7.5°
Drops below altitude 10° 06:07:28 10° 154° (SSE) 2,139 7.4 -6.7°
Sets 06:09:46 0° 152° (SSE) 3,049 8.2 -6.4°
